When you browse on this site, cookies collect data to enhance your experience and personalize the content and advertising you see.
Visit our Privacy Policy to learn more. By continuing to use the site, you agree to this use of cookies and data.
  • în România
  • Lista ţărilor
  • Pe 7 zile
  • Temperatura apei
  • Meteo pe hartă
  • Widget-uri
  • user-avatar
    Intrare

    Meteo pe oră la Galway

    Astăzi, 27 Februarie, Joi

    Timp Temperatura Precipitaţii Vânt Presiune Umiditate
    00:00 +3°C° 0.2 mm 2 m/s 749 mmHg 92%
    01:00 +3°C° 0.2 mm 2 m/s 749 mmHg 94%
    02:00 +2°C° 0.2 mm 3 m/s 749 mmHg 96%
    03:00 +1°C° 0.1 mm 3 m/s 750 mmHg 95%
    04:00 +1°C° 0.1 mm 3 m/s 750 mmHg 93%
    05:00 +1°C° 0.1 mm 3 m/s 751 mmHg 92%
    06:00 +1°C° 0 mm 3 m/s 751 mmHg 88%
    07:00 +2°C° 0 mm 3 m/s 752 mmHg 84%
    08:00 +1°C° 0 mm 4 m/s 753 mmHg 80%
    09:00 +3°C° 0 mm 4 m/s 754 mmHg 74%
    10:00 +3°C° 0 mm 5 m/s 754 mmHg 68%
    11:00 +5°C° 0 mm 5 m/s 755 mmHg 62%
    12:00 +6°C° 0 mm 5 m/s 755 mmHg 62%
    13:00 +6°C° 0 mm 5 m/s 755 mmHg 61%
    14:00 +6°C° 0 mm 4 m/s 755 mmHg 60%
    15:00 +5°C° 0 mm 4 m/s 756 mmHg 65%
    16:00 +4°C° 0 mm 4 m/s 756 mmHg 70%
    17:00 +3°C° 0 mm 4 m/s 756 mmHg 75%
    18:00 +1°C° 0 mm 4 m/s 756 mmHg 76%
    19:00 +1°C° 0 mm 4 m/s 756 mmHg 77%
    20:00 +1°C° 0 mm 4 m/s 756 mmHg 79%
    21:00 +1°C° 0 mm 4 m/s 755 mmHg 78%
    22:00 +1°C° 0 mm 4 m/s 755 mmHg 78%
    23:00 +1°C° 0 mm 5 m/s 754 mmHg 78%

    Mâine, 28 Februarie, Vineri

    Timp Temperatura Precipitaţii Vânt Presiune Umiditate
    00:00 +1°C° 0.1 mm 5 m/s 753 mmHg 83%
    01:00 +2°C° 0.1 mm 5 m/s 751 mmHg 88%
    02:00 +2°C° 0.1 mm 6 m/s 750 mmHg 94%
    03:00 +2°C° 1.1 mm 6 m/s 749 mmHg 94%
    04:00 +3°C° 1.1 mm 6 m/s 747 mmHg 95%
    05:00 +3°C° 1.1 mm 5 m/s 745 mmHg 96%
    06:00 +3°C° 1 mm 5 m/s 744 mmHg 96%
    07:00 +4°C° 1 mm 4 m/s 744 mmHg 97%
    08:00 +5°C° 1 mm 3 m/s 743 mmHg 97%
    09:00 +7°C° 0 mm 3 m/s 742 mmHg 95%
    10:00 +7°C° 0 mm 3 m/s 742 mmHg 94%
    11:00 +8°C° 0 mm 3 m/s 742 mmHg 92%
    12:00 +8°C° 0.1 mm 2 m/s 741 mmHg 92%
    13:00 +9°C° 0.1 mm 2 m/s 740 mmHg 92%
    14:00 +9°C° 0.1 mm 2 m/s 740 mmHg 92%
    15:00 +8°C° 0.1 mm 2 m/s 739 mmHg 93%
    16:00 +8°C° 0.1 mm 2 m/s 737 mmHg 94%
    17:00 +8°C° 0.1 mm 2 m/s 736 mmHg 96%
    18:00 +8°C° 0.5 mm 3 m/s 735 mmHg 96%
    19:00 +8°C° 0.5 mm 3 m/s 733 mmHg 96%
    20:00 +8°C° 0.5 mm 4 m/s 732 mmHg 97%
    21:00 +8°C° 1.1 mm 4 m/s 730 mmHg 96%
    22:00 +8°C° 1.1 mm 5 m/s 728 mmHg 96%
    23:00 +9°C° 1.1 mm 5 m/s 727 mmHg 96%

    Poimâine, 29 Februarie, Sâmbătă

    Timp Temperatura Precipitaţii Vânt Presiune Umiditate
    00:00 +6°C° 0.8 mm 8 m/s 726 mmHg 91%
    01:00 +3°C° 0.8 mm 10 m/s 726 mmHg 86%
    02:00 +1°C° 0.8 mm 13 m/s 725 mmHg 82%
    03:00 0°C° 0.2 mm 12 m/s 725 mmHg 83%
    04:00 -1°C° 0.2 mm 12 m/s 724 mmHg 84%
    05:00 -2°C° 0.2 mm 12 m/s 723 mmHg 86%
    06:00 -2°C° 1.4 mm 12 m/s 721 mmHg 88%
    07:00 -2°C° 1.4 mm 12 m/s 719 mmHg 91%
    08:00 -1°C° 1.4 mm 12 m/s 718 mmHg 93%
    09:00 -1°C° 0.2 mm 11 m/s 717 mmHg 91%
    10:00 +1°C° 0.2 mm 10 m/s 717 mmHg 88%
    11:00 +2°C° 0.2 mm 9 m/s 716 mmHg 86%
    12:00 +2°C° 0.6 mm 11 m/s 718 mmHg 87%
    13:00 +1°C° 0.6 mm 14 m/s 720 mmHg 89%
    14:00 +1°C° 0.6 mm 16 m/s 722 mmHg 91%
    15:00 +1°C° 1 mm 16 m/s 724 mmHg 88%
    16:00 +1°C° 1 mm 17 m/s 726 mmHg 85%
    17:00 +1°C° 1 mm 17 m/s 728 mmHg 82%
    18:00 +1°C° 0.1 mm 16 m/s 730 mmHg 80%
    19:00 +1°C° 0.1 mm 14 m/s 731 mmHg 78%
    20:00 0°C° 0.1 mm 13 m/s 732 mmHg 77%
    21:00 0°C° 0.1 mm 12 m/s 733 mmHg 74%
    22:00 0°C° 0.1 mm 12 m/s 734 mmHg 72%
    23:00 -1°C° 0.1 mm 11 m/s 735 mmHg 70%

    1 Martie, Duminică

    Timp Temperatura Precipitaţii Vânt Presiune Umiditate
    00:00 0°C° 0.1 mm 10 m/s 735 mmHg 70%
    01:00 0°C° 0.1 mm 10 m/s 736 mmHg 69%
    02:00 -1°C° 0.1 mm 9 m/s 736 mmHg 69%
    03:00 -1°C° 0.1 mm 9 m/s 736 mmHg 68%
    04:00 -1°C° 0.1 mm 9 m/s 737 mmHg 67%
    05:00 -1°C° 0.1 mm 9 m/s 737 mmHg 66%
    06:00 0°C° 0.1 mm 9 m/s 737 mmHg 66%
    07:00 0°C° 0.1 mm 9 m/s 737 mmHg 66%
    08:00 +1°C° 0.1 mm 9 m/s 738 mmHg 66%
    09:00 +1°C° 0.1 mm 10 m/s 738 mmHg 65%
    10:00 +2°C° 0.1 mm 10 m/s 738 mmHg 65%
    11:00 +2°C° 0.1 mm 11 m/s 739 mmHg 64%
    12:00 +2°C° 0.2 mm 11 m/s 739 mmHg 64%
    13:00 +2°C° 0.2 mm 10 m/s 739 mmHg 63%
    14:00 +2°C° 0.2 mm 10 m/s 739 mmHg 63%
    15:00 +2°C° 0.1 mm 9 m/s 739 mmHg 65%
    16:00 +1°C° 0.1 mm 8 m/s 740 mmHg 67%
    17:00 0°C° 0.1 mm 7 m/s 740 mmHg 70%
    18:00 0°C° 0.1 mm 7 m/s 740 mmHg 70%
    19:00 0°C° 0.1 mm 7 m/s 741 mmHg 71%
    20:00 -1°C° 0.1 mm 7 m/s 741 mmHg 71%
    21:00 -1°C° 0 mm 6 m/s 741 mmHg 72%
    22:00 -1°C° 0 mm 6 m/s 741 mmHg 72%
    23:00 -1°C° 0 mm 6 m/s 742 mmHg 73%

    2 Martie, Luni

    Timp Temperatura Precipitaţii Vânt Presiune Umiditate
    00:00 -1°C° 0.1 mm 6 m/s 742 mmHg 75%
    01:00 -1°C° 0.1 mm 6 m/s 742 mmHg 77%
    02:00 -1°C° 0.1 mm 6 m/s 742 mmHg 79%
    03:00 -1°C° 0.2 mm 7 m/s 742 mmHg 79%
    04:00 0°C° 0.2 mm 7 m/s 742 mmHg 80%
    05:00 0°C° 0.2 mm 7 m/s 742 mmHg 80%
    06:00 0°C° 0.1 mm 7 m/s 743 mmHg 79%
    07:00 +1°C° 0.1 mm 8 m/s 743 mmHg 77%
    08:00 +1°C° 0.1 mm 8 m/s 743 mmHg 76%
    09:00 +2°C° 0.1 mm 9 m/s 744 mmHg 74%
    10:00 +2°C° 0.1 mm 10 m/s 744 mmHg 72%
    11:00 +2°C° 0.1 mm 11 m/s 745 mmHg 70%
    12:00 +2°C° 0.1 mm 11 m/s 745 mmHg 72%
    13:00 +2°C° 0.1 mm 11 m/s 745 mmHg 74%
    14:00 +2°C° 0.1 mm 11 m/s 746 mmHg 76%
    15:00 +2°C° 0 mm 10 m/s 746 mmHg 76%
    16:00 +2°C° 0 mm 10 m/s 747 mmHg 75%
    17:00 +2°C° 0 mm 10 m/s 747 mmHg 75%
    18:00 +2°C° 0 mm 9 m/s 748 mmHg 76%
    19:00 +2°C° 0 mm 8 m/s 748 mmHg 77%
    20:00 +2°C° 0 mm 8 m/s 749 mmHg 78%
    21:00 +2°C° 0 mm 7 m/s 749 mmHg 80%
    22:00 +2°C° 0 mm 6 m/s 750 mmHg 81%
    23:00 +2°C° 0 mm 6 m/s 750 mmHg 83%

    3 Martie, Marţi

    Timp Temperatura Precipitaţii Vânt Presiune Umiditate
    00:00 +2°C° 0 mm 5 m/s 750 mmHg 81%
    01:00 +2°C° 0 mm 5 m/s 750 mmHg 80%
    02:00 +3°C° 0 mm 4 m/s 750 mmHg 78%
    03:00 +1°C° 0 mm 4 m/s 750 mmHg 79%
    04:00 +2°C° 0 mm 3 m/s 749 mmHg 79%
    05:00 +2°C° 0 mm 2 m/s 749 mmHg 79%
    06:00 +1°C° 0.2 mm 3 m/s 749 mmHg 83%
    07:00 +2°C° 0.2 mm 3 m/s 748 mmHg 86%
    08:00 +1°C° 0.2 mm 4 m/s 747 mmHg 90%
    09:00 +1°C° 0.1 mm 4 m/s 747 mmHg 90%
    10:00 +1°C° 0.1 mm 5 m/s 746 mmHg 90%
    11:00 +2°C° 0.1 mm 5 m/s 746 mmHg 90%
    12:00 +2°C° 0.7 mm 5 m/s 745 mmHg 92%
    13:00 +4°C° 0.7 mm 4 m/s 745 mmHg 93%
    14:00 +4°C° 0.7 mm 4 m/s 744 mmHg 95%
    15:00 +4°C° 0.1 mm 4 m/s 744 mmHg 93%
    16:00 +5°C° 0.1 mm 4 m/s 744 mmHg 92%
    17:00 +5°C° 0.1 mm 4 m/s 743 mmHg 90%
    18:00 +4°C° 0.1 mm 4 m/s 744 mmHg 90%
    19:00 +4°C° 0.1 mm 4 m/s 744 mmHg 90%
    20:00 +2°C° 0.1 mm 5 m/s 744 mmHg 90%
    21:00 +2°C° 0.1 mm 5 m/s 744 mmHg 90%
    22:00 +2°C° 0.1 mm 5 m/s 744 mmHg 89%
    23:00 +2°C° 0.1 mm 6 m/s 744 mmHg 89%
    Arată mai mult